Location: *
(41.7492°S, 135.4150°W)
Time: 04:53:45
(UTC+00:00)

TIGRISAT - Pass Details

Date: 04 July 2022
Orbit: 603 x 686 km, 97.7° (Epoch: 08 August)

Event Time Altitude Azimuth Distance (km) Brightness Sun altitude
Rises 13:59:05 0° 144° (SE) 3,087 ? -27.2°
Reaches altitude 10° 14:03:18 10° 108° (ESE) 2,146 ? -26.4°
Maximum altitude 14:04:33 11° 92° (E) 2,075 ? -26.2°
Drops below altitude 10° 14:05:47 10° 77° (ENE) 2,129 ? -25.9°
Sets 14:09:53 0° 40° (NE) 3,010 ? -25.2°
